N9WFD Weather Reports


time (UTC)temp
C
wind
direction
speed
KPH
gust
KPH
rain 1hr
cm
rain 24hr
cm
rain mn
cm
humidity
%
barometer
mb
20260906113054 18 167 0.0 9.7 0.00 0.03 0.03 84 1017.1
20260906111608 18 175 0.0 4.8 0.00 0.03 0.03 85 1017.0
20260906110053 18 154 1.6 4.8 0.00 0.03 0.03 85 1017.1
20260906104551 18 174 1.6 8.0 0.00 0.03 0.03 85 1017.0
20260906103150 18 144 3.2 8.0 0.00 0.03 0.03 85 1016.8
20260906101546 18 164 0.0 8.0 0.00 0.03 0.03 85 1016.8
20260906100046 18 156 1.6 9.7 0.00 0.03 0.03 85 1016.6
20260906094545 18 164 0.0 4.8 0.00 0.03 0.03 85 1016.6
20260906093042 18 157 0.0 3.2 0.00 0.03 0.03 86 1016.5
20260906091538 18 164 0.0 6.4 0.00 0.03 0.03 86 1016.4
20260906090038 18 143 0.0 4.8 0.00 0.03 0.03 86 1016.5
20260906084538 18 159 0.0 4.8 0.00 0.03 0.03 87 1016.3
20260906083037 18 154 0.0 6.4 0.00 0.03 0.03 87 1016.5
20260906081534 18 94 0.0 3.2 0.00 0.03 0.03 87 1016.3
20260906080034 18 94 0.0 4.8 0.00 0.03 0.03 87 1016.3
20260906074535 18 89 0.0 3.2 0.00 0.03 0.03 87 1016.4
20260906073033 18 85 0.0 3.2 0.00 0.03 0.03 88 1016.5
20260906071502 18 85 0.0 3.2 0.00 0.03 0.03 88 1016.4
20260906064557 19 85 0.0 3.2 0.00 0.03 0.03 88 1016.5
20260906063057 19 83 0.0 1.6 0.00 0.03 0.03 89 1016.4
20260906061558 19 83 0.0 1.6 0.00 0.03 0.03 89 1016.5
20260906060054 20 83 0.0 1.6 0.00 0.03 0.03 89 1016.5
20260906054536 20 83 0.0 3.2 0.00 0.03 0.03 90 1016.5
20260906053020 20 83 0.0 4.8 0.00 0.03 0.03 90 1016.5
20260906051514 20 150 0.0 4.8 0.00 0.03 0.03 90 1016.1
20260906050012 20 94 0.0 4.8 0.00 0.03 0.03 90 1016.1
20260906044510 20 133 0.0 4.8 0.00 0.03 0.03 90 1016.0
20260906043015 20 150 3.2 8.0 0.00 0.03 0.03 90 1015.8
20260906041506 20 181 3.2 12.9 0.00 0.03 0.03 90 1015.6
20260906040006 20 143 1.6 12.9 0.00 0.03 0.03 90 1015.4
20260906034503 20 194 4.8 11.3 0.00 0.03 0.03 90 1015.4
20260906033007 20 154 3.2 14.5 0.00 0.03 0.03 90 1015.3
20260906031559 20 150 3.2 14.5 0.00 0.03 0.03 89 1015.3
20260906030101 20 179 3.2 11.3 0.00 0.03 0.03 89 1015.2
20260906024610 21 123 3.2 8.0 0.00 0.03 0.03 89 1015.2
20260906023101 21 197 1.6 9.7 0.00 0.03 0.03 89 1015.2
20260906021523 21 149 4.8 16.1 0.00 0.03 0.03 88 1015.1
20260906020020 21 154 1.6 8.0 0.00 0.03 0.03 89 1015.1
20260906014518 21 208 1.6 14.5 0.00 0.03 0.03 88 1015.1
20260906013017 21 123 4.8 14.5 0.00 0.03 0.03 88 1015.2
20260906011517 21 152 3.2 16.1 0.00 0.03 0.03 88 1015.2
20260906010018 21 107 6.4 16.1 0.00 0.03 0.03 88 1015.1
20260906004542 21 123 1.6 14.5 0.00 0.03 0.03 88 1014.8
20260906003041 21 193 3.2 20.9 0.00 0.03 0.03 88 1014.7
20260906001539 21 156 9.7 16.1 0.00 0.03 0.03 87 1014.7
20260906000036 22 154 4.8 14.5 0.00 0.03 0.03 87 1014.7
20260905234534 22 160 8.0 24.1 0.00 0.03 0.03 86 1014.5
20260905233031 22 166 9.7 22.5 0.00 0.05 0.03 85 1014.6
20260905231526 23 200 8.0 19.3 0.00 0.05 0.03 85 1014.4
20260905230025 23 164 6.4 22.5 0.00 0.05 0.03 82 1014.2
20260905224602 25 135 9.7 20.9 0.00 0.05 0.03 80 1014.0
20260905223024 25 108 4.8 20.9 0.00 0.05 0.03 80 1013.9
20260905221522 25 152 3.2 20.9 0.00 0.05 0.03 81 1013.9
20260905220021 25 183 4.8 19.3 0.00 0.05 0.03 80 1013.9
20260905214520 26 220 3.2 20.9 0.00 0.05 0.03 79 1013.5
20260905213019 26 175 11.3 20.9 0.00 0.05 0.03 79 1013.4
20260905211537 26 144 6.4 20.9 0.00 0.05 0.03 77 1013.2
20260905210023 26 179 8.0 20.9 0.00 0.05 0.03 74 1013.2
20260905204517 27 176 9.7 20.9 0.00 0.05 0.03 74 1013.2
20260905204515 27 198 9.7 20.9 0.00 0.05 0.03 74 1013.2
20260905203014 27 177 4.8 11.3 0.00 0.05 0.03 75 1013.3
20260905201520 26 123 3.2 11.3 0.00 0.05 0.03 75 1013.2
20260905200020 27 158 6.4 16.1 0.00 0.05 0.03 75 1013.4
20260905194506 26 152 3.2 9.7 0.00 0.05 0.03 78 1013.5
20260905193001 26 113 1.6 14.5 0.03 0.05 0.03 81 1013.8
20260905191606 25 154 1.6 12.9 0.03 0.05 0.03 82 1013.9
20260905190029 25 181 4.8 12.9 0.03 0.05 0.03 82 1014.0
20260905184530 25 168 3.2 14.5 0.03 0.05 0.03 83 1014.0
20260905183023 25 175 4.8 11.3 0.00 0.03 0.00 84 1014.2
20260905181520 24 156 3.2 9.7 0.00 0.03 0.00 85 1014.0
20260905180018 24 82 1.6 17.7 0.00 0.03 0.00 85 1014.1
20260905174519 24 175 4.8 12.9 0.00 0.03 0.00 86 1013.9
20260905173014 23 145 3.2 14.5 0.00 0.03 0.00 86 1013.9
20260905171513 23 123 4.8 14.5 0.00 0.03 0.00 86 1014.0
20260905170012 23 148 6.4 14.5 0.00 0.03 0.00 87 1014.1
20260905164518 23 148 8.0 17.7 0.00 0.03 0.00 87 1014.3
20260905163007 23 171 6.4 16.1 0.00 0.03 0.00 87 1014.2
20260905161507 23 152 4.8 16.1 0.00 0.03 0.00 87 1014.2
20260905160006 23 157 6.4 17.7 0.00 0.03 0.00 87 1014.1
20260905154503 24 29 3.2 14.5 0.00 0.03 0.00 88 1013.9
20260905153059 23 162 1.6 16.1 0.00 0.03 0.00 88 1013.7
20260905151558 23 161 4.8 14.5 0.00 0.03 0.00 88 1013.7
20260905144555 23 172 1.6 12.9 0.00 0.03 0.00 89 1013.5
20260905143048 22 221 3.2 11.3 0.00 0.03 0.00 85 1013.3
20260905141545 22 150 4.8 16.1 0.00 0.03 0.00 85 1013.5
20260905140041 22 173 8.0 19.3 0.00 0.03 0.00 83 1013.3
20260905134537 22 90 4.8 17.7 0.00 0.03 0.00 82 1013.2
20260905133037 22 136 6.4 12.9 0.00 0.03 0.03 82 1013.2
20260905131533 22 85 0.0 3.2 0.00 0.03 0.03 81 1013.6
20260905130033 22 151 0.0 4.8 0.00 0.03 0.03 81 1013.1
20260905124532 22 152 1.6 6.4 0.00 0.03 0.03 82 1013.0
20260905123029 21 157 3.2 14.5 0.00 0.03 0.03 82 1012.7
20260905121529 21 160 1.6 19.3 0.00 0.03 0.03 82 1012.3
20260905120027 21 161 4.8 14.5 0.00 0.03 0.03 83 1012.2
20260905114528 21 179 4.8 14.5 0.00 0.03 0.03 83 1012.0